Location: C�mpuri de-Sus
(45.9500°N, 22.5500°E)
Time: 11:05:33
(UTC+00:00)

Cosmos 2278 Rocket - Pass Details

Date: 29 May 2022
Orbit: 840 x 846 km, 71.0° (Epoch: 01 July)

Event Time Altitude Azimuth Distance (km) Brightness Sun altitude
Rises 21:11:44 0° 339° (NNW) 3,418 7.0 -20.2°
Reaches altitude 10° 21:14:29 10° 350° (N) 2,479 5.8 -20.3°
Maximum altitude 21:19:30 31° 51° (NE) 1,452 3.6 -20.6°
Enters shadow 21:23:04 17° 104° (ESE) 2,039 3.9 -20.8°
